CST,Max TemperatureF,Mean TemperatureF,Min TemperatureF,Max Dew PointF,MeanDew PointF,Min DewpointF,Max Humidity, Mean Humidity, Min Humidity, Max Sea Level PressureIn, Mean Sea Level PressureIn, Min Sea Level PressureIn, Max VisibilityMiles, Mean VisibilityMiles, Min VisibilityMiles, Max Wind SpeedMPH, Mean Wind SpeedMPH, Max Gust SpeedMPH,PrecipitationIn, CloudCover, Events, WindDirDegrees
2013-1-1,20,13,5,9,4,1,88,70,51,30.32,30.26,30.20,10,10,10,13,4,15,0.00,0,,325
2013-1-2,32,19,5,22,13,0,87,75,63,30.25,30.14,30.07,10,10,9,16,6,21,0.00,3,,222
2013-1-3,30,21,11,25,17,7,85,73,60,30.38,30.25,30.11,10,10,8,24,12,29,0.00,6,,275
2013-1-4,34,22,10,23,16,6,84,74,63,30.33,30.27,30.22,10,10,9,21,10,25,0.00,0,,244
2013-1-5,37,26,14,34,26,14,92,81,70,30.24,30.08,29.96,10,8,2,25,8,31,0.04,5,Snow,221
2013-1-6,29,21,13,21,15,10,92,75,58,30.35,30.21,29.99,10,9,6,24,9,30,0.00,3,,288
2013-1-7,40,27,13,26,22,11,88,69,50,30.32,30.18,30.09,10,10,10,22,8,28,0.00,0,,197
2013-1-8,43,34,25,30,27,21,81,72,62,30.12,30.06,29.99,10,10,9,18,8,24,0.00,1,,176
2013-1-9,47,35,23,31,27,21,92,71,49,30.50,30.34,30.06,10,10,8,20,7,24,0.00,0,,270
2013-1-10,40,31,21,37,31,19,100,80,59,30.48,30.11,29.79,10,6,1,22,8,29,0.58,5,Rain,95
2013-1-11,55,46,37,48,43,37,100,86,71,29.78,29.69,29.60,10,5,0,25,12,32,0.03,6,Fog-Rain,193
2013-1-12,53,37,21,45,24,16,84,74,63,30.05,29.94,29.64,10,7,1,35,13,43,0.09,6,Snow,300
2013-1-13,21,16,11,18,8,6,84,73,61,30.33,30.14,29.97,10,10,3,22,12,26,T,5,Snow,300
2013-1-14,27,16,4,11,6,1,88,67,46,30.51,30.46,30.33,10,10,10,10,3,14,0.00,0,,272
2013-1-15,29,17,5,14,9,2,88,67,46,30.46,30.34,30.17,10,10,8,10,2,13,0.00,0,,181
2013-1-16,38,23,8,32,21,4,82,68,54,30.14,30.00,29.86,10,10,10,18,8,25,0.00,5,,244
2013-1-17,37,28,18,28,16,9,92,68,43,30.45,30.36,30.16,10,10,10,17,8,22,0.00,1,,313
2013-1-18,48,34,20,31,26,18,84,67,50,30.44,30.13,29.92,10,10,10,28,14,39,0.00,1,,204
2013-1-19,52,37,22,34,28,8,76,60,44,30.14,29.91,29.79,10,10,10,33,15,52,0.00,0,,252
2013-1-20,22,17,11,11,6,1,80,66,51,30.39,30.32,30.18,10,9,2,29,13,40,T,6,Snow,299
2013-1-21,13,8,3,5,-3,-9,73,60,46,30.39,30.33,30.24,10,10,7,28,16,40,T,3,Snow,287
2013-1-22,14,7,-1,0,-4,-9,75,61,46,30.47,30.42,30.38,10,10,10,16,9,22,0.00,4,,280
2013-1-23,31,22,12,12,5,-1,64,55,46,30.45,30.28,30.14,10,10,5,29,11,37,T,5,Snow,265
2013-1-24,22,14,5,8,-1,-7,66,53,39,30.69,30.53,30.30,10,10,10,16,8,21,0.00,1,,69
2013-1-25,37,27,16,18,12,4,71,56,40,30.29,30.14,30.02,10,9,2,24,11,30,T,4,Snow,268
2013-1-26,31,20,8,14,8,3,80,60,39,30.45,30.36,30.29,10,10,10,13,6,16,0.00,1,,112
2013-1-27,45,37,28,43,28,14,100,75,50,30.31,30.04,29.82,10,4,1,24,10,31,0.53,7,Rain-Thunderstorm,140
2013-1-28,56,48,39,54,44,39,100,95,89,29.96,29.83,29.68,10,3,0,18,9,25,0.10,8,Fog-Rain,156
2013-1-29,62,50,37,57,49,35,96,88,80,29.65,29.55,29.47,10,7,2,23,12,32,0.97,6,Rain-Thunderstorm,248
2013-1-30,37,26,15,34,23,9,92,82,71,29.80,29.50,29.31,10,5,0,31,16,43,0.52,7,Fog-Rain-Snow,316
2013-1-31,18,10,2,12,1,-8,80,71,62,30.35,30.05,29.79,10,8,2,29,19,38,T,5,Snow,290